Ohio State University, OH

11:42 AM EDT on May 26, 2017 (GMT -0400)
Ohio State University

Weather History for KOSU - March, 2013

Change the Weather History Date:

Saturday, March 23, 2013

  Actual Average Record
Temperature  
Mean Temperature 35 °F -  
Max Temperature 46 °F 50 °F 75 °F (2012)
Min Temperature 24 °F 32 °F 19 °F (2017)
Degree Days  
Heating Degree Days 30    
Moisture  
Dew Point 21 °F    
Average Humidity 59    
Maximum Humidity 85    
Minimum Humidity 34    
Precipitation  
Precipitation 0.00 in - - ()
Sea Level Pressure  
Sea Level Pressure 30.04 in    
Wind  
Wind Speed 3 mph (North)    
Max Wind Speed 9 mph    
Max Gust Speed 20 mph    
Visibility 10 miles    
Events      
Averages and records for this station are not official NWS values.
T = Trace of Precipitation, MM = Missing Value Source: NWS Daily Summary

Daily Weather History Graph

Daily Weather History Graph

Search for Another Location

Airport or City:

Trip Planner

Search our weather history database for the weather conditions in past years. The results will help you decide how hot, cold, wet, or windy it might be!

Date:

Astronomy

Mar. 23, 2013 Rise Set
Actual Time 7:30 AM EDT 7:47 PM EDT
Civil Twilight 7:03 AM EDT 8:14 PM EDT
Nautical Twilight 6:31 AM EDT 8:46 PM EDT
Astronomical Twilight 5:59 AM EDT 9:19 PM EDT
Moon 4:13 PM EDT (3/23) 5:06 AM EDT (3/23)
Length of Visible Light 13h 11m
Length of Day
12h 17m
Waxing Gibbous, 85% of the Moon is Illuminated
Mar 23
Waxing Gibbous
Mar 27
Full
Apr 3
Last Quarter
Apr 10
New
Apr 18
First Quarter

Hourly Weather History & Observations

Time (EDT) Temp. Windchill Dew Point Humidity Pressure Visibility Wind Dir Wind Speed Gust Speed Precip Events Conditions
12:53 AM 30.0 °F - 19.0 °F 64% 30.05 in 10.0 mi Calm Calm - N/A   Clear
1:53 AM 28.9 °F 25.2 °F 19.0 °F 67% 30.04 in 10.0 mi West 3.5 mph - N/A   Clear
2:53 AM 28.0 °F - 19.0 °F 69% 30.03 in 10.0 mi Calm Calm - N/A   Clear
3:53 AM 25.0 °F 19.3 °F 21.0 °F 85% 30.04 in 10.0 mi WNW 4.6 mph - N/A   Clear
4:53 AM 27.0 °F - 19.0 °F 72% 30.03 in 10.0 mi Calm Calm - N/A   Clear
5:53 AM 26.1 °F - 18.0 °F 71% 30.03 in 10.0 mi Calm Calm - N/A   Clear
6:53 AM 26.1 °F - 18.0 °F 71% 30.04 in 10.0 mi Calm Calm - N/A   Clear
7:53 AM 24.1 °F 19.7 °F 19.0 °F 81% 30.06 in 10.0 mi WNW 3.5 mph - N/A   Mostly Cloudy
8:53 AM 30.0 °F - 23.0 °F 75% 30.08 in 9.0 mi Calm Calm - N/A   Mostly Cloudy
9:53 AM 33.1 °F - 24.1 °F 70% 30.08 in 10.0 mi Calm Calm - N/A   Mostly Cloudy
10:53 AM 36.0 °F 33.3 °F 19.9 °F 52% 30.09 in 10.0 mi West 3.5 mph - N/A   Mostly Cloudy
11:53 AM 39.0 °F - 21.9 °F 50% 30.08 in 10.0 mi Calm Calm - N/A   Clear
12:53 PM 42.1 °F 37.7 °F 19.9 °F 41% 30.06 in 10.0 mi Variable 6.9 mph - N/A   Clear
1:53 PM 43.0 °F 40.3 °F 19.0 °F 38% 30.05 in 10.0 mi NNW 4.6 mph 17.3 mph N/A   Clear
2:53 PM 44.1 °F 41.5 °F 19.9 °F 38% 30.03 in 10.0 mi Variable 4.6 mph - N/A   Clear
3:53 PM 46.0 °F 41.9 °F 21.0 °F 37% 30.03 in 10.0 mi NNW 8.1 mph 19.6 mph N/A   Clear
4:53 PM 46.0 °F 43.9 °F 19.0 °F 34% 30.02 in 10.0 mi North 4.6 mph - N/A   Clear
5:53 PM 46.0 °F 43.1 °F 19.9 °F 35% 30.01 in 10.0 mi NNE 5.8 mph - N/A   Clear
6:53 PM 44.1 °F 40.8 °F 21.0 °F 40% 30.01 in 10.0 mi North 5.8 mph - N/A   Clear
7:53 PM 39.0 °F 33.4 °F 23.0 °F 53% 30.01 in 10.0 mi NNE 8.1 mph - N/A   Clear
8:53 PM 36.0 °F 31.1 °F 23.0 °F 59% 30.02 in 10.0 mi North 5.8 mph - N/A   Clear
9:53 PM 34.0 °F 26.6 °F 25.0 °F 70% 30.02 in 10.0 mi NNE 9.2 mph - N/A   Clear
10:53 PM 34.0 °F 26.6 °F 26.1 °F 73% 29.99 in 10.0 mi NE 9.2 mph - N/A   Clear
11:53 PM 32.0 °F 24.2 °F 25.0 °F 75% 29.97 in 10.0 mi NE 9.2 mph - N/A   Clear